Location: The Saddle
(36.8333°N, 80.3417°W)
Time: 20:02:29
(UTC-05:00)

Vanguard 1 - Visible Passes

Search period start: 22 January 2022 00:00
Search period end: 01 February 2022 00:00
Orbit: 652 x 3830 km, 34.2° (Epoch: 22 January)

Date Brightness Start Highest point End Pass type
(mag) Time Alt. Az. Time Alt. Az. Time Alt. Az.
24 Jan 14.1 06:49:56 10° SSE 06:53:18 11° SSE 06:56:17 10° SE visible
25 Jan 13.8 07:06:43 10° S 07:14:35 17° SSE 07:20:22 10° ESE visible
27 Jan 14.2 05:30:57 10° SSE 05:33:53 11° SSE 05:36:35 10° SE visible
28 Jan 13.9 05:46:09 10° S 05:55:14 17° SSE 06:02:08 10° ESE visible
29 Jan 13.6 06:04:25 10° SSW 06:16:32 23° SSE 06:24:49 10° ESE visible
30 Jan 13.3 06:23:43 10° SSW 06:37:46 30° SSE 06:46:39 10° E visible
31 Jan 14.1 04:26:05 10° S 04:35:16 15° SE 04:42:42 10° ESE visible
31 Jan 13.0 06:43:40 10° SW 06:58:59 38° SSE 07:08:04 10° E visible
